Time,TemperatureF,DewpointF,PressureIn,WindDirection,WindDirectionDegrees,WindSpeedMPH,WindSpeedGustMPH,Humidity,HourlyPrecipIn,Conditions,Clouds,dailyrainin,SoftwareType,DateUTC
2013-01-30 00:02:00,35.0,32.0,29.50,North,360,0.0,0.0,90,0.00,,,1.19,,2013-01-30 06:02:00,
2013-01-30 00:11:00,35.0,32.0,29.50,North,360,0.0,0.0,90,0.00,,,1.19,,2013-01-30 06:11:00,
2013-01-30 00:21:00,35.0,32.0,29.50,North,360,0.0,0.0,90,0.00,,,1.19,,2013-01-30 06:21:00,
2013-01-30 00:32:00,35.0,32.0,29.50,North,360,0.0,0.0,90,0.00,,,1.19,,2013-01-30 06:32:00,
2013-01-30 00:41:00,35.0,32.0,29.50,North,360,0.0,0.0,90,0.00,,,1.19,,2013-01-30 06:41:00,
2013-01-30 00:52:00,35.0,32.0,29.50,North,360,0.0,0.0,90,0.00,,,1.19,,2013-01-30 06:52:00,
2013-01-30 01:02:00,-999.0,-99.9,29.49,North,360,0.0,0.0,-999,0.00,,,1.19,,2013-01-30 07:02:00,
2013-01-30 01:12:00,-999.0,-99.9,29.49,North,360,0.0,0.0,-999,0.00,,,1.19,,2013-01-30 07:12:00,
2013-01-30 01:22:00,-999.0,-99.9,29.49,North,360,0.0,0.0,-999,0.00,,,1.19,,2013-01-30 07:22:00,
2013-01-30 01:32:00,34.0,31.0,29.47,North,358,3.0,7.0,90,0.00,,,1.19,,2013-01-30 07:32:00,
2013-01-30 01:41:00,34.0,31.0,29.47,North,358,3.0,7.0,90,0.00,,,1.19,,2013-01-30 07:41:00,
2013-01-30 01:52:00,34.0,31.0,29.47,North,358,3.0,7.0,90,0.00,,,1.19,,2013-01-30 07:52:00,
2013-01-30 02:01:00,33.0,30.0,29.49,West,277,1.0,2.0,90,0.00,,,1.19,,2013-01-30 08:01:00,
2013-01-30 02:11:00,33.0,30.0,29.49,West,277,1.0,2.0,90,0.00,,,1.19,,2013-01-30 08:11:00,
2013-01-30 02:21:00,33.0,30.0,29.49,West,277,1.0,2.0,90,0.00,,,1.19,,2013-01-30 08:21:00,
2013-01-30 02:32:00,33.0,30.0,29.49,NNW,344,1.0,3.0,90,0.01,,,1.19,,2013-01-30 08:32:00,
2013-01-30 02:42:00,33.0,30.0,29.49,NNW,344,1.0,3.0,90,0.01,,,1.19,,2013-01-30 08:42:00,
2013-01-30 02:52:00,33.0,30.0,29.49,NNW,344,1.0,3.0,90,0.01,,,1.19,,2013-01-30 08:52:00,
2013-01-30 03:01:00,33.0,30.0,29.50,NNW,337,5.0,5.0,90,0.01,,,1.19,,2013-01-30 09:01:00,
2013-01-30 03:11:00,33.0,30.0,29.50,NNW,337,5.0,5.0,90,0.01,,,1.19,,2013-01-30 09:11:00,
2013-01-30 03:21:00,33.0,30.0,29.50,NNW,337,5.0,5.0,90,0.01,,,1.19,,2013-01-30 09:21:00,
2013-01-30 03:32:00,33.0,30.0,29.50,West,274,3.0,5.0,90,0.00,,,1.19,,2013-01-30 09:32:00,
2013-01-30 03:41:00,33.0,30.0,29.50,West,274,3.0,5.0,90,0.00,,,1.19,,2013-01-30 09:41:00,
2013-01-30 03:52:00,33.0,30.0,29.50,West,274,3.0,5.0,90,0.00,,,1.19,,2013-01-30 09:52:00,
2013-01-30 04:01:00,32.0,29.0,29.50,NNW,340,7.0,7.0,90,0.00,,,1.19,,2013-01-30 10:01:00,
2013-01-30 04:11:00,32.0,29.0,29.50,NNW,340,7.0,7.0,90,0.00,,,1.19,,2013-01-30 10:11:00,
2013-01-30 04:21:00,32.0,29.0,29.50,NNW,340,7.0,7.0,90,0.00,,,1.19,,2013-01-30 10:21:00,
2013-01-30 04:32:00,32.0,29.0,29.49,North,349,5.0,10.0,90,0.00,,,1.19,,2013-01-30 10:32:00,
2013-01-30 04:41:00,32.0,29.0,29.49,North,349,5.0,10.0,90,0.00,,,1.19,,2013-01-30 10:41:00,
2013-01-30 04:52:00,32.0,29.0,29.49,North,349,5.0,10.0,90,0.00,,,1.19,,2013-01-30 10:52:00,
2013-01-30 05:02:00,31.0,28.0,29.53,North,349,10.0,22.0,90,0.00,,,1.19,,2013-01-30 11:02:00,
2013-01-30 05:11:00,31.0,28.0,29.53,North,349,10.0,22.0,90,0.00,,,1.19,,2013-01-30 11:11:00,
2013-01-30 05:22:00,31.0,28.0,29.53,North,349,10.0,22.0,90,0.00,,,1.19,,2013-01-30 11:22:00,
2013-01-30 05:32:00,30.0,27.0,29.54,North,349,5.0,8.0,90,0.00,,,1.19,,2013-01-30 11:32:00,
2013-01-30 05:42:00,30.0,27.0,29.54,North,349,5.0,8.0,90,0.00,,,1.19,,2013-01-30 11:42:00,
2013-01-30 05:52:00,30.0,27.0,29.54,North,349,5.0,8.0,90,0.00,,,1.19,,2013-01-30 11:52:00,
2013-01-30 06:02:00,29.0,26.0,29.56,North,350,8.0,15.0,90,0.00,,,1.19,,2013-01-30 12:02:00,
2013-01-30 06:12:00,29.0,26.0,29.56,North,350,8.0,15.0,90,0.00,,,1.19,,2013-01-30 12:12:00,
2013-01-30 06:22:00,29.0,26.0,29.56,North,350,8.0,15.0,90,0.00,,,1.19,,2013-01-30 12:22:00,
2013-01-30 06:32:00,28.0,25.0,29.57,North,350,6.0,9.0,89,0.00,,,1.19,,2013-01-30 12:32:00,
2013-01-30 06:42:00,28.0,25.0,29.57,North,350,6.0,9.0,89,0.00,,,1.19,,2013-01-30 12:42:00,
2013-01-30 07:03:00,28.0,25.0,29.59,North,350,5.0,7.0,90,0.00,,,1.19,,2013-01-30 13:03:00,
2013-01-30 07:12:00,28.0,25.0,29.59,North,350,5.0,7.0,90,0.00,,,1.19,,2013-01-30 13:12:00,
2013-01-30 07:23:00,28.0,25.0,29.59,North,350,5.0,7.0,90,0.00,,,1.19,,2013-01-30 13:23:00,
2013-01-30 07:32:00,27.0,24.0,29.61,North,350,10.0,10.0,90,0.00,,,1.01,,2013-01-30 13:32:00,
2013-01-30 07:42:00,27.0,24.0,29.61,North,350,10.0,10.0,90,0.00,,,1.01,,2013-01-30 13:42:00,
2013-01-30 07:53:00,27.0,24.0,29.61,North,350,10.0,10.0,90,0.00,,,1.01,,2013-01-30 13:53:00,
2013-01-30 08:02:00,26.0,23.0,29.64,North,350,9.0,13.0,90,0.00,,,1.01,,2013-01-30 14:02:00,
2013-01-30 08:12:00,26.0,23.0,29.64,North,350,9.0,13.0,90,0.00,,,1.01,,2013-01-30 14:12:00,
2013-01-30 08:23:00,26.0,23.0,29.64,North,350,9.0,13.0,90,0.00,,,1.01,,2013-01-30 14:23:00,
2013-01-30 08:33:00,25.0,22.0,29.67,North,350,8.0,9.0,88,0.00,,,0.72,,2013-01-30 14:33:00,
2013-01-30 08:42:00,25.0,22.0,29.67,North,350,8.0,9.0,88,0.00,,,0.72,,2013-01-30 14:42:00,
2013-01-30 08:53:00,25.0,22.0,29.67,North,350,8.0,9.0,88,0.00,,,0.72,,2013-01-30 14:53:00,
2013-01-30 09:03:00,24.0,21.0,29.67,North,350,17.0,23.0,87,0.00,,,0.64,,2013-01-30 15:03:00,
2013-01-30 09:12:00,24.0,21.0,29.67,North,350,17.0,23.0,87,0.00,,,0.64,,2013-01-30 15:12:00,
2013-01-30 09:23:00,24.0,21.0,29.67,North,350,17.0,23.0,87,0.00,,,0.64,,2013-01-30 15:23:00,
2013-01-30 09:33:00,25.0,22.0,29.69,North,350,8.0,16.0,88,0.00,,,0.20,,2013-01-30 15:33:00,
2013-01-30 09:43:00,25.0,22.0,29.69,North,350,8.0,16.0,88,0.00,,,0.20,,2013-01-30 15:43:00,
2013-01-30 09:53:00,25.0,22.0,29.69,North,350,8.0,16.0,88,0.00,,,0.20,,2013-01-30 15:53:00,
2013-01-30 10:03:00,25.0,21.0,29.71,North,350,9.0,9.0,84,0.00,,,0.07,,2013-01-30 16:03:00,
2013-01-30 10:12:00,25.0,21.0,29.71,North,350,9.0,9.0,84,0.00,,,0.07,,2013-01-30 16:12:00,
2013-01-30 10:23:00,25.0,21.0,29.71,North,350,9.0,9.0,84,0.00,,,0.07,,2013-01-30 16:23:00,
2013-01-30 10:32:00,25.0,21.0,29.73,North,350,9.0,9.0,83,0.00,,,0.00,,2013-01-30 16:32:00,
2013-01-30 10:42:00,25.0,21.0,29.73,North,350,9.0,9.0,83,0.00,,,0.00,,2013-01-30 16:42:00,
2013-01-30 10:52:00,25.0,21.0,29.73,North,350,9.0,9.0,83,0.00,,,0.00,,2013-01-30 16:52:00,
2013-01-30 11:02:00,25.0,21.0,29.74,North,350,7.0,7.0,83,0.00,,,0.00,,2013-01-30 17:02:00,
2013-01-30 11:12:00,25.0,21.0,29.74,North,350,7.0,7.0,83,0.00,,,0.00,,2013-01-30 17:12:00,
2013-01-30 11:22:00,25.0,21.0,29.74,North,350,7.0,7.0,83,0.00,,,0.00,,2013-01-30 17:22:00,
2013-01-30 11:32:00,26.0,20.0,29.75,North,350,5.0,6.0,79,0.00,,,0.00,,2013-01-30 17:32:00,
2013-01-30 11:42:00,26.0,20.0,29.75,North,350,5.0,6.0,79,0.00,,,0.00,,2013-01-30 17:42:00,
2013-01-30 11:53:00,26.0,20.0,29.75,North,350,5.0,6.0,79,0.00,,,0.00,,2013-01-30 17:53:00,
2013-01-30 12:02:00,26.0,20.0,29.76,North,350,3.0,6.0,77,0.00,,,0.00,,2013-01-30 18:02:00,
2013-01-30 12:12:00,26.0,20.0,29.76,North,350,3.0,6.0,77,0.00,,,0.00,,2013-01-30 18:12:00,
2013-01-30 12:23:00,26.0,20.0,29.76,North,350,3.0,6.0,77,0.00,,,0.00,,2013-01-30 18:23:00,
2013-01-30 12:33:00,26.0,19.0,29.76,North,350,7.0,12.0,74,0.00,,,0.00,,2013-01-30 18:33:00,
2013-01-30 12:42:00,26.0,19.0,29.76,North,350,7.0,12.0,74,0.00,,,0.00,,2013-01-30 18:42:00,
2013-01-30 12:53:00,26.0,19.0,29.76,North,350,7.0,12.0,74,0.00,,,0.00,,2013-01-30 18:53:00,
2013-01-30 13:02:00,25.0,18.0,29.76,North,350,6.0,9.0,74,0.00,,,0.00,,2013-01-30 19:02:00,
2013-01-30 13:12:00,25.0,18.0,29.76,North,350,6.0,9.0,74,0.00,,,0.00,,2013-01-30 19:12:00,
2013-01-30 13:22:00,25.0,18.0,29.76,North,350,6.0,9.0,74,0.00,,,0.00,,2013-01-30 19:22:00,
2013-01-30 13:32:00,25.0,18.0,29.77,North,350,7.0,7.0,73,0.00,,,0.00,,2013-01-30 19:32:00,
2013-01-30 13:43:00,25.0,18.0,29.77,North,350,7.0,7.0,73,0.00,,,0.00,,2013-01-30 19:43:00,
2013-01-30 13:53:00,25.0,18.0,29.77,North,350,7.0,7.0,73,0.00,,,0.00,,2013-01-30 19:53:00,
2013-01-30 14:03:00,25.0,17.0,29.78,North,350,5.0,10.0,70,0.00,,,0.00,,2013-01-30 20:03:00,
2013-01-30 14:12:00,25.0,17.0,29.78,North,350,5.0,10.0,70,0.00,,,0.00,,2013-01-30 20:12:00,
2013-01-30 14:22:00,25.0,17.0,29.78,North,350,5.0,10.0,70,0.00,,,0.00,,2013-01-30 20:22:00,
2013-01-30 14:33:00,25.0,18.0,29.78,North,350,7.0,8.0,73,0.00,,,0.00,,2013-01-30 20:33:00,
2013-01-30 14:42:00,25.0,18.0,29.78,North,350,7.0,8.0,73,0.00,,,0.00,,2013-01-30 20:42:00,
2013-01-30 14:53:00,25.0,18.0,29.78,North,350,7.0,8.0,73,0.00,,,0.00,,2013-01-30 20:53:00,
2013-01-30 15:03:00,25.0,18.0,29.79,North,350,2.0,7.0,75,0.00,,,0.00,,2013-01-30 21:03:00,
2013-01-30 15:12:00,25.0,18.0,29.79,North,350,2.0,7.0,75,0.00,,,0.00,,2013-01-30 21:12:00,
2013-01-30 15:23:00,25.0,18.0,29.79,North,350,2.0,7.0,75,0.00,,,0.00,,2013-01-30 21:23:00,
2013-01-30 15:32:00,24.0,16.0,29.81,North,350,8.0,10.0,71,0.00,,,0.00,,2013-01-30 21:32:00,
2013-01-30 15:42:00,24.0,16.0,29.81,North,350,8.0,10.0,71,0.00,,,0.00,,2013-01-30 21:42:00,
2013-01-30 15:53:00,24.0,16.0,29.81,North,350,8.0,10.0,71,0.00,,,0.00,,2013-01-30 21:53:00,
2013-01-30 16:03:00,24.0,15.0,29.82,North,350,4.0,6.0,69,0.00,,,0.00,,2013-01-30 22:03:00,
2013-01-30 16:12:00,24.0,15.0,29.82,North,350,4.0,6.0,69,0.00,,,0.00,,2013-01-30 22:12:00,
2013-01-30 16:22:00,24.0,15.0,29.82,North,350,4.0,6.0,69,0.00,,,0.00,,2013-01-30 22:22:00,
2013-01-30 16:32:00,24.0,14.0,29.83,North,349,10.0,16.0,66,0.00,,,0.00,,2013-01-30 22:32:00,
2013-01-30 16:42:00,24.0,14.0,29.83,North,349,10.0,16.0,66,0.00,,,0.00,,2013-01-30 22:42:00,
2013-01-30 16:53:00,24.0,14.0,29.83,North,349,10.0,16.0,66,0.00,,,0.00,,2013-01-30 22:53:00,
2013-01-30 17:02:00,24.0,14.0,29.83,NNW,344,7.0,10.0,66,0.00,,,0.00,,2013-01-30 23:02:00,
2013-01-30 17:12:00,24.0,14.0,29.83,NNW,344,7.0,10.0,66,0.00,,,0.00,,2013-01-30 23:12:00,
2013-01-30 17:22:00,24.0,14.0,29.83,NNW,344,7.0,10.0,66,0.00,,,0.00,,2013-01-30 23:22:00,
2013-01-30 17:32:00,24.0,15.0,29.85,NW,321,4.0,6.0,67,0.00,,,0.00,,2013-01-30 23:32:00,
2013-01-30 17:42:00,24.0,15.0,29.85,NW,321,4.0,6.0,67,0.00,,,0.00,,2013-01-30 23:42:00,
2013-01-30 17:52:00,24.0,15.0,29.85,NW,321,4.0,6.0,67,0.00,,,0.00,,2013-01-30 23:52:00,
2013-01-30 18:02:00,24.0,15.0,29.86,WNW,287,5.0,5.0,67,0.00,,,0.00,,2013-01-31 00:02:00,
2013-01-30 18:11:00,24.0,15.0,29.86,WNW,287,5.0,5.0,67,0.00,,,0.00,,2013-01-31 00:11:00,
2013-01-30 18:22:00,24.0,15.0,29.86,WNW,287,5.0,5.0,67,0.00,,,0.00,,2013-01-31 00:22:00,
2013-01-30 18:32:00,24.0,15.0,29.87,NW,308,4.0,7.0,68,0.00,,,0.00,,2013-01-31 00:32:00,
2013-01-30 18:42:00,24.0,15.0,29.87,NW,308,4.0,7.0,68,0.00,,,0.00,,2013-01-31 00:42:00,
2013-01-30 18:53:00,24.0,15.0,29.87,NW,308,4.0,7.0,68,0.00,,,0.00,,2013-01-31 00:53:00,
2013-01-30 19:02:00,24.0,16.0,29.88,NNW,328,4.0,6.0,70,0.00,,,0.00,,2013-01-31 01:02:00,
2013-01-30 19:11:00,24.0,16.0,29.88,NNW,328,4.0,6.0,70,0.00,,,0.00,,2013-01-31 01:11:00,
2013-01-30 19:21:00,24.0,16.0,29.88,NNW,328,4.0,6.0,70,0.00,,,0.00,,2013-01-31 01:21:00,
2013-01-30 19:32:00,24.0,16.0,29.89,WNW,296,4.0,5.0,71,0.00,,,0.00,,2013-01-31 01:32:00,
2013-01-30 19:41:00,24.0,16.0,29.89,WNW,296,4.0,5.0,71,0.00,,,0.00,,2013-01-31 01:41:00,
2013-01-30 19:52:00,24.0,16.0,29.89,WNW,296,4.0,5.0,71,0.00,,,0.00,,2013-01-31 01:52:00,
2013-01-30 20:01:00,24.0,16.0,29.89,WNW,296,4.0,5.0,71,0.00,,,0.00,,2013-01-31 02:01:00,
2013-01-30 20:11:00,24.0,16.0,29.89,WNW,296,4.0,5.0,71,0.00,,,0.00,,2013-01-31 02:11:00,
2013-01-30 20:32:00,23.0,14.0,29.91,WNW,295,3.0,5.0,68,0.00,,,0.00,,2013-01-31 02:32:00,
2013-01-30 20:42:00,23.0,14.0,29.91,WNW,295,3.0,5.0,68,0.00,,,0.00,,2013-01-31 02:42:00,
2013-01-30 20:52:00,23.0,14.0,29.91,WNW,295,3.0,5.0,68,0.00,,,0.00,,2013-01-31 02:52:00,
2013-01-30 21:03:00,23.0,14.0,29.91,West,273,2.0,3.0,69,0.00,,,0.00,,2013-01-31 03:03:00,
2013-01-30 21:11:00,23.0,14.0,29.91,West,273,2.0,3.0,69,0.00,,,0.00,,2013-01-31 03:11:00,
2013-01-30 21:21:00,23.0,14.0,29.91,West,273,2.0,3.0,69,0.00,,,0.00,,2013-01-31 03:21:00,
2013-01-30 21:32:00,23.0,14.0,29.92,WNW,299,2.0,3.0,69,0.00,,,0.00,,2013-01-31 03:32:00,
2013-01-30 21:41:00,23.0,14.0,29.92,WNW,299,2.0,3.0,69,0.00,,,0.00,,2013-01-31 03:41:00,
2013-01-30 21:52:00,23.0,14.0,29.92,WNW,299,2.0,3.0,69,0.00,,,0.00,,2013-01-31 03:52:00,
2013-01-30 22:02:00,23.0,14.0,29.92,WNW,299,2.0,3.0,69,0.00,,,0.00,,2013-01-31 04:02:00,
2013-01-30 22:11:00,23.0,14.0,29.92,WNW,299,2.0,3.0,69,0.00,,,0.00,,2013-01-31 04:11:00,
2013-01-30 22:32:00,24.0,16.0,29.91,WSW,256,3.0,3.0,70,0.00,,,0.00,,2013-01-31 04:32:00,
2013-01-30 22:42:00,24.0,16.0,29.91,WSW,256,3.0,3.0,70,0.00,,,0.00,,2013-01-31 04:42:00,
2013-01-30 22:52:00,24.0,16.0,29.91,WSW,256,3.0,3.0,70,0.00,,,0.00,,2013-01-31 04:52:00,
2013-01-30 23:03:00,23.0,15.0,29.91,SW,232,2.0,2.0,70,0.00,,,0.00,,2013-01-31 05:03:00,
2013-01-30 23:11:00,23.0,15.0,29.91,SW,232,2.0,2.0,70,0.00,,,0.00,,2013-01-31 05:11:00,
2013-01-30 23:22:00,23.0,15.0,29.91,SW,232,2.0,2.0,70,0.00,,,0.00,,2013-01-31 05:22:00,
2013-01-30 23:32:00,23.0,15.0,29.91,SW,232,2.0,2.0,70,0.00,,,0.00,,2013-01-31 05:32:00,
2013-01-30 23:41:00,22.0,14.0,29.91,WSW,249,1.0,3.0,70,0.00,,,0.00,,2013-01-31 05:41:00,
2013-01-30 23:52:00,22.0,14.0,29.91,WSW,249,1.0,3.0,70,0.00,,,0.00,,2013-01-31 05:52:00,